Alexandria, Egypt

9:55 AM EET on May 28, 2017 (GMT +0200)
Alexandria

Weather History for HEAX - September, 2013

Change the Weather History Date:

Friday, September 27, 2013

  Actual Average Record
Temperature  
Mean Temperature 74 °F -  
Max Temperature 83 °F 78 °F 93 °F (2010)
Min Temperature 66 °F 65 °F 64 °F (2006)
Cooling Degree Days 10    
Growing Degree Days 24 (Base 50)    
Moisture  
Dew Point 65 °F    
Average Humidity 69    
Maximum Humidity 94    
Minimum Humidity 46    
Precipitation  
Precipitation 0.00 in 0.01 in - ()
Sea Level Pressure  
Sea Level Pressure 29.95 in    
Wind  
Wind Speed 5 mph ()    
Max Wind Speed 14 mph    
Max Gust Speed -    
Visibility 6.2 miles    
Events      
Averages and records for this station are not official NWS values.
T = Trace of Precipitation, MM = Missing Value Source: Averaged Metar Reports

Daily Weather History Graph

Daily Weather History Graph

Search for Another Location

Airport or City:

Trip Planner

Search our weather history database for the weather conditions in past years. The results will help you decide how hot, cold, wet, or windy it might be!

Date:

Astronomy

Sep. 27, 2013 Rise Set
Actual Time 5:51 AM EET 5:50 PM EET
Civil Twilight 5:27 AM EET 6:14 PM EET
Nautical Twilight 4:59 AM EET 6:42 PM EET
Astronomical Twilight 4:30 AM EET 7:10 PM EET
Moon 11:42 PM EET (9/27) 12:53 PM EET (9/27)
Length of Visible Light 12h 47m
Length of Day
11h 59m
Waning Gibbous, 48% of the Moon is Illuminated
Sep 27
Waning Gibbous
Oct 5
New
Oct 12
First Quarter
Oct 19
Full
Oct 27
Last Quarter

Hourly Weather History & Observations

Time (EET) Temp. Heat Index Dew Point Humidity Pressure Visibility Wind Dir Wind Speed Gust Speed Precip Events Conditions
12:00 AM 68.0 °F - 64.4 °F 88% 29.98 in 6.2 mi East 2.3 mph - N/A   Scattered Clouds
1:00 AM 68.0 °F - 64.4 °F 88% 29.98 in 6.2 mi East 2.3 mph - N/A   Scattered Clouds
2:00 AM 68 °F - 64 °F 82% 29.96 in 6 mi Calm Calm - -   Partly Cloudy
2:00 AM 68.0 °F - 64.4 °F 88% 29.95 in 6.2 mi Calm Calm - N/A   Scattered Clouds
3:00 AM 68.0 °F - 64.4 °F 88% 29.95 in 6.2 mi Calm Calm - N/A   Scattered Clouds
4:00 AM 66.2 °F - 64.4 °F 94% 29.95 in 6.2 mi Calm Calm - N/A   Scattered Clouds
5:00 AM 68.0 °F - 64.4 °F 88% 29.95 in - Calm Calm - N/A   Clear
7:00 AM 73.4 °F - 66.2 °F 78% 29.95 in - SW 2.3 mph - N/A   Clear
8:00 AM 75 °F - 66 °F 67% 29.96 in 6 mi SW 2.3 mph - -   Scattered Clouds
8:00 AM 75.2 °F - 66.2 °F 73% 29.95 in 6.2 mi SW 2.3 mph - N/A   Partly Cloudy
9:00 AM 78.8 °F - 66.2 °F 65% 29.98 in 6.2 mi North 9.2 mph - N/A   Partly Cloudy
10:00 AM 82.4 °F 83.9 °F 64.4 °F 54% 29.98 in 6.2 mi NW 9.2 mph - N/A   Partly Cloudy
11:00 AM 82.4 °F 83.9 °F 64.4 °F 54% 29.95 in 6.2 mi NNW 10.4 mph - N/A   Partly Cloudy
12:00 PM 82.4 °F 83.9 °F 64.4 °F 54% 29.95 in 6.2 mi NW 9.2 mph - N/A   Partly Cloudy
1:00 PM 82.4 °F 83.9 °F 64.4 °F 54% 29.95 in 6.2 mi NW 9.2 mph - N/A   Partly Cloudy
2:00 PM 82 °F - 65 °F 46% 30.12 in 6 mi NW 9.2 mph - -   Partly Cloudy
2:00 PM 82.4 °F 83.9 °F 64.4 °F 54% 29.92 in 6.2 mi NW 9.2 mph - N/A   Scattered Clouds
3:00 PM 82.4 °F 83.9 °F 64.4 °F 54% 29.92 in 6.2 mi NW 13.8 mph - N/A   Scattered Clouds
4:00 PM 80.6 °F 82.7 °F 66.2 °F 61% 29.92 in 6.2 mi NW 10.4 mph - N/A   Scattered Clouds
5:00 PM 80.6 °F 82.7 °F 66.2 °F 61% 29.92 in 6.2 mi NW 11.5 mph - N/A   Scattered Clouds
6:00 PM 78.8 °F - 64.4 °F 61% 29.92 in 6.2 mi NW 13.8 mph - N/A   Scattered Clouds
7:00 PM 78.8 °F - 64.4 °F 61% 29.92 in 6.2 mi NNW 9.2 mph - N/A   Scattered Clouds
8:00 PM 78 °F - 67 °F 61% 29.94 in 6 mi NW 9.2 mph - -   Partly Cloudy
8:00 PM 78.8 °F - 68.0 °F 69% 29.92 in 6.2 mi NW 9.2 mph - N/A   Scattered Clouds
9:00 PM 78.8 °F - 68.0 °F 69% 29.92 in 6.2 mi NW 9.2 mph - N/A   Partly Cloudy
10:00 PM 77.0 °F - 66.2 °F 69% 29.92 in 6.2 mi NW 11.5 mph - N/A   Partly Cloudy
11:00 PM 77.0 °F - 66.2 °F 69% 29.92 in 6.2 mi NW 11.5 mph - N/A   Partly Cloudy